Time,TemperatureF,DewpointF,PressureIn,WindDirection,WindDirectionDegrees,WindSpeedMPH,WindSpeedGustMPH,Humidity,HourlyPrecipIn,Conditions,Clouds,dailyrainin,SoftwareType,DateUTC
2013-03-02 00:02:00,36.0,24.0,29.91,South,169,0.0,0.0,62,-99.99,,,-99.99,,2013-03-02 05:02:00,
2013-03-02 00:12:00,36.0,24.0,29.91,South,169,0.0,0.0,62,-99.99,,,-99.99,,2013-03-02 05:12:00,
2013-03-02 00:22:00,36.0,25.0,29.90,ENE,65,1.0,0.0,64,-99.99,,,-99.99,,2013-03-02 05:22:00,
2013-03-02 00:32:00,36.0,25.0,29.90,NE,56,1.0,0.0,63,-99.99,,,-99.99,,2013-03-02 05:32:00,
2013-03-02 00:42:00,36.0,25.0,29.90,NE,56,1.0,0.0,63,-99.99,,,-99.99,,2013-03-02 05:42:00,
2013-03-02 00:52:00,35.0,24.0,29.90,NE,40,1.0,0.0,63,-99.99,,,-99.99,,2013-03-02 05:52:00,
2013-03-02 01:01:00,35.0,24.0,29.90,SSE,155,0.0,0.0,64,-99.99,,,-99.99,,2013-03-02 06:01:00,
2013-03-02 01:11:00,35.0,24.0,29.90,SSE,155,0.0,0.0,64,-99.99,,,-99.99,,2013-03-02 06:11:00,
2013-03-02 01:21:00,35.0,24.0,29.89,ESE,122,2.0,0.0,63,-99.99,,,-99.99,,2013-03-02 06:21:00,
2013-03-02 01:32:00,35.0,24.0,29.91,South,170,0.0,0.0,64,-99.99,,,-99.99,,2013-03-02 06:32:00,
2013-03-02 01:42:00,35.0,24.0,29.91,South,170,0.0,0.0,64,-99.99,,,-99.99,,2013-03-02 06:42:00,
2013-03-02 01:52:00,35.0,24.0,29.90,East,96,0.0,0.0,64,-99.99,,,-99.99,,2013-03-02 06:52:00,
2013-03-02 02:01:00,35.0,24.0,29.90,South,172,1.0,0.0,63,-99.99,,,-99.99,,2013-03-02 07:01:00,
2013-03-02 02:11:00,35.0,24.0,29.90,South,172,1.0,0.0,63,-99.99,,,-99.99,,2013-03-02 07:11:00,
2013-03-02 02:21:00,35.0,23.0,29.91,NE,43,5.0,0.0,61,-99.99,,,-99.99,,2013-03-02 07:21:00,
2013-03-02 02:32:00,35.0,23.0,29.90,SSW,194,1.0,0.0,61,-99.99,,,-99.99,,2013-03-02 07:32:00,
2013-03-02 02:42:00,35.0,23.0,29.90,SSW,194,1.0,0.0,61,-99.99,,,-99.99,,2013-03-02 07:42:00,
2013-03-02 02:52:00,35.0,23.0,29.89,SE,143,2.0,0.0,61,-99.99,,,-99.99,,2013-03-02 07:52:00,
2013-03-02 03:01:00,35.0,23.0,29.89,SE,141,1.0,0.0,60,-99.99,,,-99.99,,2013-03-02 08:01:00,
2013-03-02 03:11:00,35.0,23.0,29.89,SE,141,1.0,0.0,60,-99.99,,,-99.99,,2013-03-02 08:11:00,
2013-03-02 03:22:00,35.0,23.0,29.89,East,84,2.0,0.0,60,-99.99,,,-99.99,,2013-03-02 08:22:00,
2013-03-02 03:32:00,35.0,22.0,29.89,SSE,158,2.0,0.0,59,-99.99,,,-99.99,,2013-03-02 08:32:00,
2013-03-02 03:42:00,35.0,22.0,29.89,SSE,158,2.0,0.0,59,-99.99,,,-99.99,,2013-03-02 08:42:00,
2013-03-02 03:52:00,35.0,23.0,29.89,SW,218,1.0,0.0,60,-99.99,,,-99.99,,2013-03-02 08:52:00,
2013-03-02 04:02:00,35.0,23.0,29.89,SW,218,1.0,0.0,60,-99.99,,,-99.99,,2013-03-02 09:02:00,
2013-03-02 04:11:00,34.0,22.0,29.89,SE,132,0.0,0.0,60,-99.99,,,-99.99,,2013-03-02 09:11:00,
2013-03-02 04:21:00,34.0,22.0,29.89,SE,132,0.0,0.0,60,-99.99,,,-99.99,,2013-03-02 09:21:00,
2013-03-02 04:32:00,34.0,22.0,29.88,SSE,163,1.0,0.0,61,-99.99,,,-99.99,,2013-03-02 09:32:00,
2013-03-02 04:42:00,34.0,22.0,29.88,SSE,163,1.0,0.0,61,-99.99,,,-99.99,,2013-03-02 09:42:00,
2013-03-02 04:52:00,34.0,22.0,29.88,ESE,119,4.0,0.0,61,-99.99,,,-99.99,,2013-03-02 09:52:00,
2013-03-02 05:01:00,34.0,22.0,29.87,ESE,111,1.0,0.0,61,-99.99,,,-99.99,,2013-03-02 10:01:00,
2013-03-02 05:16:00,34.0,22.0,29.87,ESE,111,1.0,0.0,61,-99.99,,,-99.99,,2013-03-02 10:16:00,
2013-03-02 05:22:00,34.0,22.0,29.87,ESE,112,0.0,0.0,62,-99.99,,,-99.99,,2013-03-02 10:22:00,
2013-03-02 05:32:00,34.0,22.0,29.86,SE,135,0.0,0.0,62,-99.99,,,-99.99,,2013-03-02 10:32:00,
2013-03-02 05:43:00,34.0,22.0,29.86,SE,135,0.0,0.0,62,-99.99,,,-99.99,,2013-03-02 10:43:00,
2013-03-02 05:52:00,34.0,23.0,29.87,ENE,61,0.0,0.0,63,-99.99,,,-99.99,,2013-03-02 10:52:00,
2013-03-02 06:01:00,34.0,22.0,29.87,East,97,1.0,0.0,62,-99.99,,,-99.99,,2013-03-02 11:01:00,
2013-03-02 06:11:00,34.0,22.0,29.87,East,97,1.0,0.0,62,-99.99,,,-99.99,,2013-03-02 11:11:00,
2013-03-02 06:21:00,34.0,23.0,29.87,SSE,160,0.0,0.0,63,-99.99,,,-99.99,,2013-03-02 11:21:00,
2013-03-02 06:32:00,34.0,23.0,29.87,ENE,75,2.0,0.0,64,-99.99,,,-99.99,,2013-03-02 11:32:00,
2013-03-02 06:42:00,34.0,23.0,29.87,ENE,75,2.0,0.0,64,-99.99,,,-99.99,,2013-03-02 11:42:00,
2013-03-02 06:52:00,34.0,23.0,29.87,East,89,1.0,0.0,63,-99.99,,,-99.99,,2013-03-02 11:52:00,
2013-03-02 07:02:00,34.0,22.0,29.87,SE,128,1.0,0.0,62,-99.99,,,-99.99,,2013-03-02 12:02:00,
2013-03-02 07:11:00,34.0,22.0,29.87,SE,128,1.0,0.0,62,-99.99,,,-99.99,,2013-03-02 12:11:00,
2013-03-02 07:21:00,34.0,22.0,29.88,SSE,155,3.0,0.0,62,-99.99,,,-99.99,,2013-03-02 12:21:00,
2013-03-02 07:33:00,33.0,22.0,29.88,NE,34,0.0,0.0,63,-99.99,,,-99.99,,2013-03-02 12:33:00,
2013-03-02 07:43:00,33.0,22.0,29.88,NE,34,0.0,0.0,63,-99.99,,,-99.99,,2013-03-02 12:43:00,
2013-03-02 07:53:00,33.0,22.0,29.89,SSE,152,1.0,0.0,63,-99.99,,,-99.99,,2013-03-02 12:53:00,
2013-03-02 08:01:00,33.0,22.0,29.89,ENE,57,2.0,0.0,64,-99.99,,,-99.99,,2013-03-02 13:01:00,
2013-03-02 08:11:00,33.0,22.0,29.89,ENE,57,2.0,0.0,64,-99.99,,,-99.99,,2013-03-02 13:11:00,
2013-03-02 08:22:00,33.0,22.0,29.89,ESE,107,2.0,0.0,63,-99.99,,,-99.99,,2013-03-02 13:22:00,
2013-03-02 08:32:00,33.0,22.0,29.90,ESE,118,0.0,0.0,64,-99.99,,,-99.99,,2013-03-02 13:32:00,
2013-03-02 08:42:00,33.0,22.0,29.90,ESE,118,0.0,0.0,64,-99.99,,,-99.99,,2013-03-02 13:42:00,
2013-03-02 08:52:00,33.0,22.0,29.90,South,169,1.0,0.0,63,-99.99,,,-99.99,,2013-03-02 13:52:00,
2013-03-02 09:01:00,34.0,23.0,29.90,SSW,201,0.0,0.0,63,-99.99,,,-99.99,,2013-03-02 14:01:00,
2013-03-02 09:11:00,34.0,23.0,29.90,SSW,201,0.0,0.0,63,-99.99,,,-99.99,,2013-03-02 14:11:00,
2013-03-02 09:21:00,34.0,23.0,29.90,SE,138,1.0,0.0,63,-99.99,,,-99.99,,2013-03-02 14:21:00,
2013-03-02 09:32:00,34.0,23.0,29.90,SE,129,2.0,0.0,63,-99.99,,,-99.99,,2013-03-02 14:32:00,
2013-03-02 09:42:00,34.0,23.0,29.90,SE,129,2.0,0.0,63,-99.99,,,-99.99,,2013-03-02 14:42:00,
2013-03-02 09:52:00,34.0,22.0,29.89,SE,141,0.0,0.0,62,-99.99,,,-99.99,,2013-03-02 14:52:00,
2013-03-02 10:02:00,35.0,23.0,29.89,South,176,0.0,0.0,62,-99.99,,,-99.99,,2013-03-02 15:02:00,
2013-03-02 10:11:00,35.0,23.0,29.89,South,176,0.0,0.0,62,-99.99,,,-99.99,,2013-03-02 15:11:00,
2013-03-02 10:22:00,35.0,23.0,29.89,South,176,0.0,0.0,62,-99.99,,,-99.99,,2013-03-02 15:22:00,
2013-03-02 10:32:00,35.0,23.0,29.89,NE,44,4.0,0.0,61,-99.99,,,-99.99,,2013-03-02 15:32:00,
2013-03-02 10:42:00,35.0,23.0,29.89,NE,44,4.0,0.0,61,-99.99,,,-99.99,,2013-03-02 15:42:00,
2013-03-02 10:52:00,35.0,23.0,29.89,SSE,149,2.0,0.0,60,-99.99,,,-99.99,,2013-03-02 15:52:00,
2013-03-02 11:02:00,35.0,22.0,29.89,SE,133,3.0,0.0,59,-99.99,,,-99.99,,2013-03-02 16:02:00,
2013-03-02 11:11:00,35.0,22.0,29.89,SE,133,3.0,0.0,59,-99.99,,,-99.99,,2013-03-02 16:11:00,
2013-03-02 11:21:00,35.0,22.0,29.89,ENE,70,1.0,0.0,59,-99.99,,,-99.99,,2013-03-02 16:21:00,
2013-03-02 11:32:00,35.0,22.0,29.89,SE,134,1.0,0.0,58,-99.99,,,-99.99,,2013-03-02 16:32:00,
2013-03-02 11:42:00,35.0,22.0,29.89,SE,134,1.0,0.0,58,-99.99,,,-99.99,,2013-03-02 16:42:00,
2013-03-02 11:52:00,35.0,22.0,29.89,SE,134,1.0,0.0,58,-99.99,,,-99.99,,2013-03-02 16:52:00,
2013-03-02 12:01:00,36.0,22.0,29.88,SE,126,1.0,0.0,57,-99.99,,,-99.99,,2013-03-02 17:01:00,
2013-03-02 12:11:00,36.0,22.0,29.88,SE,126,1.0,0.0,57,-99.99,,,-99.99,,2013-03-02 17:11:00,
2013-03-02 12:21:00,36.0,22.0,29.88,SE,126,1.0,0.0,57,-99.99,,,-99.99,,2013-03-02 17:21:00,
2013-03-02 12:32:00,36.0,22.0,29.88,ENE,69,0.0,0.0,56,-99.99,,,-99.99,,2013-03-02 17:32:00,
2013-03-02 12:42:00,36.0,22.0,29.88,ENE,69,0.0,0.0,56,-99.99,,,-99.99,,2013-03-02 17:42:00,
2013-03-02 12:52:00,36.0,21.0,29.88,ENE,71,2.0,0.0,55,-99.99,,,-99.99,,2013-03-02 17:52:00,
2013-03-02 13:02:00,36.0,21.0,29.88,NNE,16,4.0,0.0,53,-99.99,,,-99.99,,2013-03-02 18:02:00,
2013-03-02 13:11:00,36.0,21.0,29.88,NNE,16,4.0,0.0,53,-99.99,,,-99.99,,2013-03-02 18:11:00,
2013-03-02 13:22:00,36.0,21.0,29.88,SSE,167,1.0,0.0,54,-99.99,,,-99.99,,2013-03-02 18:22:00,
2013-03-02 13:32:00,36.0,21.0,29.88,SE,139,2.0,13.0,54,-99.99,,,-99.99,,2013-03-02 18:32:00,
2013-03-02 13:42:00,36.0,21.0,29.88,SE,139,2.0,13.0,54,-99.99,,,-99.99,,2013-03-02 18:42:00,
2013-03-02 13:52:00,35.0,20.0,29.87,ESE,103,3.0,0.0,54,-99.99,,,-99.99,,2013-03-02 18:52:00,
2013-03-02 14:01:00,35.0,20.0,29.87,SE,134,2.0,0.0,54,-99.99,,,-99.99,,2013-03-02 19:01:00,
2013-03-02 14:12:00,35.0,20.0,29.87,SE,134,2.0,0.0,54,-99.99,,,-99.99,,2013-03-02 19:12:00,
2013-03-02 14:22:00,35.0,20.0,29.87,ESE,117,3.0,0.0,55,-99.99,,,-99.99,,2013-03-02 19:22:00,
2013-03-02 14:32:00,35.0,20.0,29.86,East,89,5.0,0.0,54,-99.99,,,-99.99,,2013-03-02 19:32:00,
2013-03-02 14:42:00,35.0,20.0,29.86,East,89,5.0,0.0,54,-99.99,,,-99.99,,2013-03-02 19:42:00,
2013-03-02 14:52:00,35.0,20.0,29.87,SE,127,4.0,0.0,55,-99.99,,,-99.99,,2013-03-02 19:52:00,
2013-03-02 15:01:00,35.0,20.0,29.87,South,174,5.0,0.0,54,-99.99,,,-99.99,,2013-03-02 20:01:00,
2013-03-02 15:11:00,35.0,20.0,29.87,South,174,5.0,0.0,54,-99.99,,,-99.99,,2013-03-02 20:11:00,
2013-03-02 15:22:00,35.0,20.0,29.87,East,101,3.0,0.0,55,-99.99,,,-99.99,,2013-03-02 20:22:00,
2013-03-02 15:32:00,34.0,19.0,29.87,ESE,115,3.0,0.0,54,-99.99,,,-99.99,,2013-03-02 20:32:00,
2013-03-02 15:42:00,34.0,19.0,29.87,ESE,115,3.0,0.0,54,-99.99,,,-99.99,,2013-03-02 20:42:00,
2013-03-02 15:52:00,34.0,19.0,29.87,ESE,118,5.0,0.0,54,-99.99,,,-99.99,,2013-03-02 20:52:00,
2013-03-02 16:02:00,34.0,19.0,29.87,ESE,118,5.0,0.0,54,-99.99,,,-99.99,,2013-03-02 21:02:00,
2013-03-02 16:11:00,34.0,19.0,29.87,ESE,118,5.0,0.0,54,-99.99,,,-99.99,,2013-03-02 21:11:00,
2013-03-02 16:22:00,34.0,20.0,29.87,ESE,107,2.0,0.0,56,-99.99,,,-99.99,,2013-03-02 21:22:00,
2013-03-02 16:32:00,34.0,19.0,29.88,SE,145,3.0,0.0,54,-99.99,,,-99.99,,2013-03-02 21:32:00,
2013-03-02 16:42:00,34.0,19.0,29.88,SE,145,3.0,0.0,54,-99.99,,,-99.99,,2013-03-02 21:42:00,
2013-03-02 16:52:00,33.0,19.0,29.88,ENE,58,1.0,0.0,56,-99.99,,,-99.99,,2013-03-02 21:52:00,
2013-03-02 17:02:00,33.0,19.0,29.88,SSE,147,3.0,0.0,56,-99.99,,,-99.99,,2013-03-02 22:02:00,
2013-03-02 17:11:00,33.0,19.0,29.88,SSE,147,3.0,0.0,56,-99.99,,,-99.99,,2013-03-02 22:11:00,
2013-03-02 17:22:00,34.0,19.0,29.88,SE,129,0.0,0.0,54,-99.99,,,-99.99,,2013-03-02 22:22:00,
2013-03-02 17:32:00,33.0,19.0,29.89,ESE,103,1.0,0.0,56,-99.99,,,-99.99,,2013-03-02 22:32:00,
2013-03-02 17:42:00,33.0,19.0,29.89,ESE,103,1.0,0.0,56,-99.99,,,-99.99,,2013-03-02 22:42:00,
2013-03-02 17:52:00,33.0,19.0,29.89,ENE,77,6.0,0.0,57,-99.99,,,-99.99,,2013-03-02 22:52:00,
2013-03-02 18:01:00,32.0,19.0,29.90,ESE,115,1.0,0.0,58,-99.99,,,-99.99,,2013-03-02 23:01:00,
2013-03-02 18:11:00,32.0,19.0,29.90,SE,133,0.0,0.0,58,-99.99,,,-99.99,,2013-03-02 23:11:00,
2013-03-02 18:21:00,32.0,19.0,29.90,SE,133,0.0,0.0,58,-99.99,,,-99.99,,2013-03-02 23:21:00,
2013-03-02 18:32:00,32.0,19.0,29.91,East,101,1.0,0.0,58,-99.99,,,-99.99,,2013-03-02 23:32:00,
2013-03-02 18:42:00,32.0,19.0,29.91,East,101,1.0,0.0,58,-99.99,,,-99.99,,2013-03-02 23:42:00,
2013-03-02 18:52:00,32.0,19.0,29.91,ESE,119,2.0,0.0,57,-99.99,,,-99.99,,2013-03-02 23:52:00,
2013-03-02 19:02:00,31.0,18.0,29.92,ENE,78,1.0,0.0,57,-99.99,,,-99.99,,2013-03-03 00:02:00,
2013-03-02 19:11:00,31.0,18.0,29.92,ENE,78,1.0,0.0,57,-99.99,,,-99.99,,2013-03-03 00:11:00,
2013-03-02 19:22:00,31.0,17.0,29.92,South,184,2.0,0.0,56,-99.99,,,-99.99,,2013-03-03 00:22:00,
2013-03-02 19:32:00,31.0,17.0,29.92,ENE,67,2.0,0.0,56,-99.99,,,-99.99,,2013-03-03 00:32:00,
2013-03-02 19:42:00,31.0,17.0,29.92,ENE,67,2.0,0.0,56,-99.99,,,-99.99,,2013-03-03 00:42:00,
2013-03-02 19:52:00,31.0,17.0,29.92,SE,129,2.0,0.0,56,-99.99,,,-99.99,,2013-03-03 00:52:00,
2013-03-02 20:01:00,31.0,18.0,29.92,SE,145,0.0,0.0,57,-99.99,,,-99.99,,2013-03-03 01:01:00,
2013-03-02 20:11:00,31.0,18.0,29.92,SE,145,0.0,0.0,57,-99.99,,,-99.99,,2013-03-03 01:11:00,
2013-03-02 20:21:00,31.0,18.0,29.92,SE,145,0.0,0.0,57,-99.99,,,-99.99,,2013-03-03 01:21:00,
2013-03-02 20:32:00,31.0,17.0,29.92,NE,50,2.0,0.0,56,-99.99,,,-99.99,,2013-03-03 01:32:00,
2013-03-02 20:42:00,31.0,17.0,29.92,NE,50,2.0,0.0,56,-99.99,,,-99.99,,2013-03-03 01:42:00,
2013-03-02 20:52:00,31.0,17.0,29.93,SE,132,1.0,0.0,56,-99.99,,,-99.99,,2013-03-03 01:52:00,
2013-03-02 21:01:00,31.0,18.0,29.93,SSE,149,2.0,0.0,57,-99.99,,,-99.99,,2013-03-03 02:01:00,
2013-03-02 21:11:00,31.0,18.0,29.93,SSE,149,2.0,0.0,57,-99.99,,,-99.99,,2013-03-03 02:11:00,
2013-03-02 21:21:00,31.0,18.0,29.93,SSE,149,2.0,0.0,57,-99.99,,,-99.99,,2013-03-03 02:21:00,
2013-03-02 21:32:00,31.0,19.0,29.94,ESE,110,2.0,0.0,61,-99.99,,,-99.99,,2013-03-03 02:32:00,
2013-03-02 21:42:00,31.0,19.0,29.94,ESE,110,2.0,0.0,61,-99.99,,,-99.99,,2013-03-03 02:42:00,
2013-03-02 21:52:00,31.0,20.0,29.94,ESE,111,3.0,0.0,62,-99.99,,,-99.99,,2013-03-03 02:52:00,
2013-03-02 22:02:00,31.0,20.0,29.94,ESE,111,3.0,0.0,62,-99.99,,,-99.99,,2013-03-03 03:02:00,
2013-03-02 22:11:00,31.0,20.0,29.94,ESE,111,3.0,0.0,62,-99.99,,,-99.99,,2013-03-03 03:11:00,
2013-03-02 22:21:00,31.0,19.0,29.93,ESE,105,2.0,0.0,61,-99.99,,,-99.99,,2013-03-03 03:21:00,
2013-03-02 22:32:00,31.0,18.0,29.94,SE,133,2.0,0.0,59,-99.99,,,-99.99,,2013-03-03 03:32:00,
2013-03-02 22:42:00,31.0,18.0,29.94,SE,133,2.0,0.0,59,-99.99,,,-99.99,,2013-03-03 03:42:00,
2013-03-02 22:52:00,31.0,18.0,29.94,SE,133,2.0,0.0,59,-99.99,,,-99.99,,2013-03-03 03:52:00,
2013-03-02 23:01:00,31.0,18.0,29.94,SW,223,6.0,0.0,58,-99.99,,,-99.99,,2013-03-03 04:01:00,
2013-03-02 23:11:00,31.0,18.0,29.94,SW,223,6.0,0.0,58,-99.99,,,-99.99,,2013-03-03 04:11:00,
2013-03-02 23:21:00,30.0,17.0,29.93,SE,126,1.0,0.0,59,-99.99,,,-99.99,,2013-03-03 04:21:00,
2013-03-02 23:32:00,30.0,18.0,29.93,South,186,1.0,0.0,60,-99.99,,,-99.99,,2013-03-03 04:32:00,
2013-03-02 23:42:00,30.0,18.0,29.93,South,186,1.0,0.0,60,-99.99,,,-99.99,,2013-03-03 04:42:00,
2013-03-02 23:51:00,30.0,18.0,29.93,SE,127,1.0,0.0,61,-99.99,,,-99.99,,2013-03-03 04:51:00,